Ketchikan, AK

8:52 AM AKST on November 13, 2018 (GMT -0900)
Ketchikan International

Weather History for PAKT - October, 2017

Change the Weather History Date:

Monday, October 9, 2017

  Actual Average Record
Temperature  
Mean Temperature 44 °F -  
Max Temperature 52 °F 54 °F 61 °F (1957)
Min Temperature 37 °F 42 °F 31 °F (1959)
Degree Days  
Heating Degree Days 21    
Moisture  
Dew Point 42 °F    
Average Humidity 87    
Maximum Humidity 100    
Minimum Humidity 67    
Precipitation  
Precipitation 0.03 in - - ()
Sea Level Pressure  
Sea Level Pressure 30.03 in    
Wind  
Wind Speed 5 mph (SE)    
Max Wind Speed 10 mph    
Max Gust Speed -    
Visibility 10 miles    
Events Rain    
Averages and records for this station are not official NWS values.
T = Trace of Precipitation, MM = Missing Value Source: NWS Daily Summary

Daily Weather History Graph

Daily Weather History Graph

Search for Another Location

Airport or City:

Astronomy

Oct. 09, 2017 Rise Set
Actual Time 7:05 AM AKDT 6:00 PM AKDT
Civil Twilight 6:29 AM AKDT 6:37 PM AKDT
Nautical Twilight 5:46 AM AKDT 7:19 PM AKDT
Astronomical Twilight 5:03 AM AKDT 8:02 PM AKDT
Moon 8:41 PM AKDT (10/9) 11:57 AM AKDT (10/9)
Length of Visible Light 12h 08m
Length of Day
10h 54m
Waning Gibbous, 79% of the Moon is Illuminated
Oct 9
Waning Gibbous
Oct 12
Last Quarter
Oct 19
New
Oct 27
First Quarter
Nov 3
Full

Hourly Weather History & Observations

Time (AKDT) Temp. Windchill Dew Point Humidity Pressure Visibility Wind Dir Wind Speed Gust Speed Precip Events Conditions
12:53 AM 46.0 °F 43.9 °F 44.1 °F 93% 30.05 in 10.0 mi SSE 4.6 mph - N/A   Partly Cloudy
1:53 AM 46.9 °F - 44.1 °F 90% 30.04 in 10.0 mi SE 4.6 mph - N/A   Overcast
2:53 AM 46.0 °F 43.9 °F 44.1 °F 93% 30.04 in 10.0 mi South 4.6 mph - N/A   Overcast
3:53 AM 46.0 °F 43.9 °F 44.1 °F 93% 30.03 in 10.0 mi East 4.6 mph - N/A   Mostly Cloudy
4:53 AM 46.0 °F 43.9 °F 44.1 °F 93% 30.03 in 10.0 mi South 4.6 mph - N/A   Overcast
5:53 AM 46.0 °F 44.8 °F 44.1 °F 93% 30.03 in 9.0 mi Variable 3.5 mph - 0.03 in Rain Light Rain
6:01 AM 46.4 °F 44.3 °F 44.6 °F 93% 30.02 in 10.0 mi ESE 4.6 mph - N/A   Overcast
6:53 AM 44.1 °F 41.5 °F 42.1 °F 93% 30.02 in 10.0 mi SSW 4.6 mph - 0.00 in   Mostly Cloudy
7:53 AM 44.1 °F 41.5 °F 42.1 °F 93% 30.02 in 10.0 mi SSE 4.6 mph - N/A   Scattered Clouds
8:53 AM 46.4 °F 42.9 °F 44.6 °F 93% 30.02 in 10.0 mi ESE 6.9 mph - N/A Rain Light Rain
9:53 AM 48.2 °F - 44.6 °F 87% 30.03 in 10.0 mi ESE 6.9 mph - N/A   Scattered Clouds
10:53 AM 48.2 °F - 44.6 °F 87% 30.04 in 10.0 mi SE 6.9 mph - N/A Rain Light Rain
11:53 AM 50.0 °F - 42.8 °F 76% 30.03 in 10.0 mi SE 9.2 mph - N/A   Scattered Clouds
12:53 PM 51.8 °F - 41.0 °F 67% 30.03 in 10.0 mi SE 8.1 mph - N/A   Scattered Clouds
1:53 PM 51.8 °F - 42.8 °F 71% 30.02 in 10.0 mi ESE 10.4 mph - N/A   Mostly Cloudy
2:53 PM 51.8 °F - 42.8 °F 71% 30.01 in 10.0 mi ESE 9.2 mph - N/A   Mostly Cloudy
3:53 PM 50.0 °F - 41.0 °F 71% 30.02 in 10.0 mi Variable 3.5 mph - N/A   Scattered Clouds
4:53 PM 48.2 °F - 39.2 °F 71% 30.01 in 10.0 mi SE 6.9 mph - N/A   Scattered Clouds
5:53 PM 46.4 °F 45.2 °F 39.2 °F 76% 30.02 in 10.0 mi SE 3.5 mph - N/A   Mostly Cloudy
6:53 PM 42.1 °F 40.2 °F 39.9 °F 92% 30.03 in 10.0 mi SW 3.5 mph - N/A   Clear
7:53 PM 39.9 °F - 39.0 °F 97% 30.04 in 10.0 mi Calm Calm - N/A   Partly Cloudy
8:53 PM 39.0 °F 36.8 °F 37.9 °F 96% 30.05 in 10.0 mi WNW 3.5 mph - N/A   Clear
9:53 PM 37.9 °F - 37.0 °F 97% 30.06 in 10.0 mi Calm Calm - N/A   Scattered Clouds
10:53 PM 37.0 °F - 37.0 °F 100% 30.06 in 10.0 mi Calm Calm - N/A   Clear
11:53 PM 37.0 °F 33.3 °F 36.0 °F 96% 30.06 in 10.0 mi NW 4.6 mph - N/A   Clear